Regional Weather Roundup
Issued by NWS

Home | Current Version | Previous Version | Text Only | Print | Product List | Glossary On
Versions: 1 2 3 4 5 6 7 8 9 10 11 12 13 14 15 16 17 18 19 20 21 22 23 24 25 26 27 28 29 30 31 32 33 34 35 36 37 38 39 40 41 42 43 44 45 46 47 48 49 50
000
ASUS44 KFWD 051315
RWRTX
NORTH TEXAS HOURLY WEATHER ROUNDUP
NATIONAL WEATHER SERVICE FORT WORTH TX
800 AM CDT TUE MAY 05 2015

NOTE: "FAIR" INDICATES FEW OR NO CLOUDS BELOW 12,000 FEET WITH NO
SIGNIFICANT WEATHER AND/OR OBSTRUCTIONS TO VISIBILITY.

TXZ118-119-051400-
DALLAS/FORT WORTH METROPLEX

CITY           SKY/WX    TMP DP  RH WIND       PRES   REMARKS
DFW AIRPORT    PTSUNNY   65  61  87 SE13      30.03R
DALLAS LOVE    PTSUNNY   65  59  81 SE14      30.03R
FTW MEACHAM    CLOUDY    66  61  84 SE12      30.01R
DAL-EXECUTIVE  PTSUNNY   63  59  87 SE12      30.03R
FTW-ALLIANCE   CLOUDY    65  61  87 S9        30.02R
FTW-NAS-JRB    CLOUDY    66  61  84 SE14      30.02R
FTW-SPINKS     PTSUNNY   63  59  88 S13       30.04R
ARLINGTON      PTSUNNY   67  60  78 SE13      30.03R
GRAND PRAIRIE  PTSUNNY   64  61  88 E7        30.05R
ADDISON        PTSUNNY   64  59  82 E9G15     30.06R
MESQUITE       MOSUNNY   61  59  94 E8        30.04R
LANCASTER      MOSUNNY   61  58  91 SE3       30.04R
$$

TXZ091>094-102>105-117-120-121-131>134-051400-
NORTH CENTRAL TEXAS

CITY           SKY/WX    TMP DP  RH WIND       PRES   REMARKS
SHRMAN/DENISON CLOUDY    64  61  90 SE8       30.06R
GAINESVILLE    PTSUNNY   61  58  90 SE8       30.06R
BOWIE          CLOUDY    61  58  89 SE5       30.02R
BRIDGEPORT     CLOUDY    63  61  94 SE8       30.02R
DECATUR        CLOUDY    64  60  89 SE10      30.03R
DENTON         PTSUNNY   64  59  83 SE9       30.03R
MCKINNEY       PTSUNNY   64  60  87 SE9       30.04R
GREENVILLE     PTSUNNY   64  59  82 SE6       30.07R
ROCKWALL       MOSUNNY   61  59  91 E9        30.04R
TERRELL        MOSUNNY   66  58  75 E9        30.06R
WAXAHACHIE     PTSUNNY   62  62  98 E3        30.05R
CLEBURNE       CLOUDY    64  64 100 SE12      30.03R FOG
GRANBURY       CLOUDY    66  61  85 SE8       30.01S
$$

TXZ083>090-098>101-113>116-127>130-139>142-154-155-051400-
WESTERN NORTH TEXAS

CITY           SKY/WX    TMP DP  RH WIND       PRES   REMARKS
WICHITA FALLS  CLOUDY    61  56  83 SE7       30.01R
WF-KICKAPOO    CLOUDY    64  58  81 CALM      30.03R
VERNON         CLOUDY    63  57  82 E18       29.92F
ABILENE        CLOUDY    66  59  78 S14       29.95R
ABILENE-DYESS  CLOUDY    66  60  82 S16       29.92R
BRECKENRIDGE   CLOUDY    67  59  74 SE15G23   29.95R
GRAHAM         CLOUDY    64  59  86 E7        29.97S
MINERAL WELLS  CLOUDY    64  60  87 SE13      29.98R
STEPHENVILLE   CLOUDY    65  60  85 SE8       30.01R
COMANCHE       CLOUDY    65  64  97 SE10G18   29.97S
BROWNWOOD      CLOUDY    66  61  82 SE13G18   29.97S
COLEMAN        CLOUDY    66  61  84 SE14      29.96R
BRADY          CLOUDY    66  61  82 SE12      29.94S
$$

TXZ143>147-156>162-174-175-051400-
CENTRAL TEXAS

CITY           SKY/WX    TMP DP  RH WIND       PRES   REMARKS
WACO           CLOUDY    66  62  87 SE14      30.02R
WACO-TSTC      PTSUNNY   64  63  94 SE5       30.03R
WACO-MCGREGOR  CLOUDY    64  57  77 S13       30.03R
HILLSBORO      PTSUNNY   64  60  87 SE10      30.03R
CORSICANA      PTSUNNY   66  62  87 SE12      30.05R
MEXIA          PTSUNNY   64  63  94 E13       30.03R
HEARNE         CLOUDY    65  63  94 E3        30.04R
CAMERON        CLOUDY    67  64  93 SE8       30.02R
TEMPLE         CLOUDY    66  61  82 SE16      30.00S
KILLEEN        CLOUDY    66  64  94 SE14      29.99R
KILLEEN-SKYLRK CLOUDY    66  61  82 SE10      29.98F
FORT HOOD      CLOUDY    65  64  96 SE12      29.99R FOG
GATESVILLE     CLOUDY    66  64  94 SE8       30.02R FOG
HAMILTON       CLOUDY    66  66 100 S14       30.00R
LAMPASAS       PTSUNNY   68  65  89 SE9       29.98S
$$

TXZ095>097-106>112-122>126-135>138-148>153-164>167-051400-
EAST TEXAS

CITY           SKY/WX    TMP DP  RH WIND       PRES   REMARKS
PARIS          CLOUDY    64  57  77 MISG      30.10R
SULPHUR SPRNGS CLOUDY    64  61  90 E7        30.10S
MOUNT PLEASANT CLOUDY    68  66  93 SE9       30.11R
GILMER           N/A    N/A N/A N/A MISG        N/A
MINEOLA        PTSUNNY   63  63 100 CALM      30.09R
TYLER          PTSUNNY   68  64  87 SE12      30.07R
LONGVIEW       PTSUNNY   70  66  87 SE10      30.09R
MARSHALL       CLOUDY    71  67  88 SE6       30.13R
ATHENS         CLOUDY    63  63 100 SE6       30.06R FOG
PALESTINE      CLOUDY    66  66 100 E8        30.06R FOG
JACKSONVILLE   CLOUDY    69  67  93 SE8       30.09R
HENDERSON      CLOUDY    70  67  90 SE9       30.10R
NACOGDOCHES      N/A     70  66  88 E6        30.08R
LUFKIN         CLOUDY    72  68  87 SE9       30.07R
$$

SUPPLEMENTAL OBSERVATIONS (CENTRAL)

CITY           SKY/WX    TMP DP  RH WIND       PRES   REMARKS
LAKE TEXOMA      N/A     63  59  88 E3          N/A
CADDO GRASSLND   N/A     66  59  77 SE6         N/A
PAT MAYSE LAKE   N/A     64  63  94 E6          N/A
GREENVILLE       N/A     64  59  82 SE6         N/A
CEDAR HILL       N/A     66  61  82 SE5         N/A
ATHENS           N/A     66  63  88 SE10        N/A
MCGREGOR         N/A     66  61  82 S12         N/A
TEMPLE           N/A     66  63  88 SE10        N/A
$$

SUPPLEMENTAL OBSERVATIONS (WEST)

CITY           SKY/WX    TMP DP  RH WIND       PRES   REMARKS
MILLERS CREEK    N/A     63  59  88 SE13        N/A
POSSUM KINGDOM   N/A     64  59  82 SE8         N/A
GRANBURY         N/A     64  59  82 SE10        N/A
HAMBY            N/A     66  59  77 S14         N/A
IVIE RESERVOIR   N/A     68  57  68 SE12G21     N/A
COLORADO BEND    N/A     66  61  82 S13         N/A
$$

SUPPLEMENTAL OBSERVATIONS (EAST)

CITY           SKY/WX    TMP DP  RH WIND       PRES   REMARKS
CLARKSVILLE      N/A     68  66  94 SE7         N/A
TEXARKANA        N/A     70  64  83 SE5         N/A
LINDEN           N/A     66  63  88 E2          N/A
GILMER           N/A     70  66  88 SE6         N/A
HENDERSON        N/A     70  64  83 SE6         N/A
N SABINE NF      N/A     70  66  88 MISG        N/A
S SABINE NF      N/A     72  66  83 CALM        N/A
$$

SUPPLEMENTAL OBSERVATIONS ARE A COLLECTION OF AUTOMATED INSTRUMENTS
THAT ARE MAINTAINED BY A VARIETY OF FEDERAL AND STATE AGENCIES.
CERTAIN ELEMENTS...SUCH AS HUMIDITY VALUES AND SUSTAINED WIND
SPEEDS...MAY BE APPROXIMATED.



USA.gov is the U.S. government's official web portal to all federal, state and local government web resources and services.